Temperature
7 8 8 8 8 8 8 8 8 9 9 9 9 9 9 9 9 9 9 9 9 9 9 9 9 9 9 9 9 9 9 9 9 9 8 8 8 9 9 9 9 9 9
7 7 7 8 7 7 8 8 8 8 9 9 9 8 8 9 9 9 9 9 9 9 9 9 9 9 9 9 8 8 8 8 8 8 8 7 8 8 8 8 8 8 8
6 7 7 7 7 7 7 7 7 8 8 8 8 8 8 8 8 8 8 8 8 8 8 8 8 8 8 8 8 8 8 8 8 8 7 7 7 7 7 8 8 7 7
6 6 6 7 7 7 7 7 7 7 8 8 7 7 8 8 8 8 8 8 8 8 8 8 8 8 8 8 8 8 8 8 7 7 7 7 7 7 6 7 7 7 7
5 6 6 6 6 6 6 7 7 7 7 7 7 7 7 7 7 7 7 7 7 7 8 8 8 8 8 8 8 7 7 7 7 7 7 7 7 7 6 6 6 6 6
5 5 6 6 6 6 6 6 6 7 7 7 7 7 7 7 7 7 7 7 7 7 7 7 8 7 7 7 7 7 7 7 7 7 7 7 6 6 6 6 6 6 6
4 4 5 5 5 6 6 6 6 6 6 6 6 6 6 6 6 7 7 7 7 7 7 7 7 7 7 7 7 7 7 7 7 7 6 6 6 6 6 6 5 5 5
4 4 4 5 5 5 5 5 6 6 6 6 6 6 6 6 6 6 6 6 6 6 6 6 6 6 6 6 6 6 6 6 6 6 6 6 6 6 6 6 5 5 5
3 4 4 4 4 4 5 5 5 5 5 6 6 6 6 6 6 6 6 6 6 6 6 6 5 5 5 5 5 5 5 5 5 5 6 5 6 5 5 5 5 5 4
3 3 3 4 4 4 4 4 4 5 5 5 5 5 5 5 5 5 5 5 5 5 5 5 5 5 5 5 5 5 5 5 5 5 5 5 5 5 5 5 5 5 4
2 3 3 3 3 3 3 4 4 4 4 5 5 5 5 5 5 5 5 5 5 5 5 5 4 4 4 4 4 4 4 4 4 4 4 5 4 4 4 4 4 4 4
2 2 2 2 3 3 3 3 3 3 4 4 4 4 5 5 5 5 4 4 4 4 4 4 4 4 4 4 4 4 4 4 4 4 4 4 4 4 4 4 4 4 4
2 2 2 2 2 2 2 2 3 3 3 3 3 4 4 4 4 4 4 4 4 3 3 3 3 3 3 3 3 3 3 3 3 3 3 3 3 3 3 3 3 3 3
2 2 2 2 2 2 2 2 2 2 2 3 3 3 3 3 3 3 3 3 3 3 3 3 3 3 3 2 2 2 3 3 3 3 3 3 3 3 3 3 3 3 3
1 1 1 1 1 1 1 1 2 2 2 2 2 2 3 2 2 3 3 3 3 2 2 2 2 2 2 2 2 2 2 2 2 2 2 2 2 2 2 2 2 2 2
1 1 1 1 1 1 1 1 1 1 1 1 2 2 2 2 2 2 2 2 2 2 2 2 2 2 2 1 1 1 1 2 2 2 2 2 2 2 2 2 2 1 1
1 1 1 1 1 1 1 1 1 1 1 1 1 1 1 1 1 1 1 1 1 1 1 1 1 1 1 1 1 1 1 1 1 1 1 1 1 1 1 1 1 1 1
1 1 1 1 1 0 0 0 0 -0 -0 0 0 0 0 1 1 1 1 1 1 1 1 1 0 0 1 1 1 0 0 0 1 1 1 1 1 1 1 1 1 1 1
0 0 0 0 0 -0 -0 -0 -0 -1 -1 -1 -0 -0 0 0 0 0 0 0 0 0 0 0 -0 -0 -0 -0 -0 -0 -0 -0 -0 0 0 0 0 0 0 0 0 0 0
0 0 0 -0 -0 -0 -1 -1 -1 -1 -1 -1 -1 -1 -1 -1 -1 -1 -1 -1 -1 -1 -1 -1 -1 -1 -1 -1 -1 -1 -1 -1 -0 -0 -0 -0 -0 -0 -0 -0 -0 -0 -0
-0 -0 -0 -0 -1 -1 -1 -1 -1 -1 -1 -2 -2 -1 -1 -1 -1 -1 -1 -1 -1 -1 -1 -1 -1 -1 -1 -1 -1 -1 -1 -1 -1 -1 -1 -1 -1 -1 -1 -1 -1 -1 -1
-1 -1 -1 -1 -1 -1 -2 -2 -2 -2 -2 -2 -2 -2 -2 -2 -2 -2 -2 -2 -2 -2 -2 -2 -2 -2 -2 -2 -2 -2 -2 -2 -1 -1 -1 -1 -1 -1 -1 -1 -1 -1 -1
-1 -1 -1 -1 -2 -2 -2 -2 -2 -2 -2 -2 -2 -2 -2 -2 -2 -2 -2 -2 -2 -2 -2 -2 -2 -2 -2 -2 -2 -2 -2 -2 -2 -2 -2 -2 -2 -2 -2 -2 -2 -2 -2
-2 -2 -2 -2 -2 -2 -2 -2 -2 -3 -3 -3 -3 -3 -3 -3 -3 -2 -3 -3 -3 -3 -3 -3 -3 -3 -3 -2 -2 -2 -2 -2 -2 -2 -2 -2 -2 -2 -2 -2 -2 -2 -2
-2 -2 -2 -2 -2 -2 -2 -3 -3 -3 -3 -3 -3 -3 -3 -3 -3 -3 -3 -3 -3 -3 -3 -3 -3 -3 -3 -3 -3 -3 -3 -3 -3 -3 -3 -3 -3 -3 -3 -3 -3 -3 -3
-2 -3 -3 -3 -3 -3 -3 -3 -3 -3 -3 -3 -3 -4 -4 -4 -4 -4 -3 -3 -4 -4 -4 -4 -4 -4 -3 -3 -3 -3 -3 -3 -3 -3 -3 -3 -3 -3 -3 -3 -3 -3 -3
Wind_Speed
5 3 3 3 2 2 1 2 2 2 1 1 2 2 2 2 1 1 1 2 2 3 3 2 3 3 3 3 3 3 3 2 2 2 2 2 2 1 1 2 2 3 4
4 3 3 2 2 3 2 2 2 3 3 2 2 2 2 2 2 1 1 2 2 2 3 4 3 4 4 4 4 3 2 1 2 2 2 1 1 1 1 1 1 1 2
5 5 4 4 3 3 3 3 3 3 3 2 1 1 1 0 1 2 2 1 2 2 2 3 3 3 4 4 4 4 3 2 1 1 2 2 2 1 1 1 0 0 0
5 5 4 4 4 5 4 3 3 3 3 3 3 3 3 3 3 2 2 2 2 3 3 3 3 4 3 4 5 3 2 4 2 1 0 1 2 1 1 1 1 0 1
4 5 5 5 4 3 3 2 3 2 2 2 4 5 4 3 2 1 2 2 2 2 3 3 3 3 3 3 4 4 3 3 3 2 1 1 1 1 2 2 2 1 1
4 4 4 3 3 3 2 2 2 3 2 2 2 5 5 4 3 2 3 2 2 2 3 3 3 3 3 3 3 4 4 3 3 2 2 2 2 2 1 2 3 2 2
4 5 5 4 4 3 3 2 2 3 3 3 3 4 5 6 5 4 4 3 2 2 3 3 3 3 2 3 3 3 3 3 3 3 2 2 2 1 1 2 2 2 2
4 5 5 4 4 4 3 2 3 3 3 3 4 4 4 4 4 4 4 4 3 3 3 4 3 3 3 3 3 2 2 2 3 3 2 1 1 1 2 2 2 2 2
5 5 6 5 4 4 4 3 3 3 3 3 3 3 3 4 4 3 3 3 2 2 3 4 4 4 4 4 3 2 2 2 2 2 2 1 1 1 1 2 3 3 3
6 6 6 6 5 4 4 3 3 3 3 3 3 3 3 3 4 4 3 3 2 3 4 4 4 4 3 4 3 3 3 2 2 2 2 1 1 1 1 2 2 2 3
5 5 6 6 5 5 4 4 3 3 3 3 3 2 2 2 3 3 3 3 2 2 3 3 3 3 3 3 3 3 3 3 2 2 3 2 2 1 1 1 1 1 2
5 5 5 5 5 6 5 5 4 3 3 3 2 2 1 1 2 2 3 3 3 2 3 3 3 3 3 3 3 3 3 4 4 3 3 3 2 2 2 2 2 2 2
4 4 4 4 5 6 6 5 4 3 2 2 1 1 1 1 2 2 2 3 3 3 2 3 3 3 3 3 3 3 3 3 3 3 3 3 3 3 2 2 2 2 2
4 4 5 4 5 5 5 5 5 4 2 2 1 1 2 2 2 2 1 2 3 3 2 2 3 2 2 2 3 3 3 2 2 2 2 3 3 3 3 2 3 2 2
5 5 5 5 5 5 5 5 5 4 3 1 1 1 1 1 2 2 2 2 2 2 2 2 2 2 2 3 3 3 3 2 2 2 2 2 3 3 3 2 3 3 2
6 6 5 5 5 5 5 5 5 4 3 1 1 1 1 1 1 2 2 2 2 2 2 2 2 1 2 3 4 3 2 2 2 2 2 2 2 2 2 2 3 3 3
6 6 5 5 5 5 4 4 4 4 3 2 2 1 1 1 1 1 1 1 1 2 2 2 1 1 2 3 4 4 2 2 2 2 2 2 2 2 2 2 1 1 2
6 6 5 5 4 4 4 4 3 3 3 3 2 1 0 0 1 1 1 1 1 1 1 1 1 1 2 3 4 3 1 2 2 2 3 2 3 3 2 1 1 1 2
5 5 5 4 3 3 3 3 3 2 3 3 3 2 1 1 1 1 1 1 1 1 1 1 2 2 2 3 3 3 1 1 2 2 2 3 3 3 2 2 2 2 2
4 3 3 2 2 3 2 1 2 2 3 3 3 3 1 1 1 1 1 1 1 1 1 1 1 2 3 4 4 3 2 2 2 1 2 3 3 3 2 2 2 3 3
3 2 2 2 2 2 1 2 2 3 4 3 3 3 2 2 2 1 1 1 1 1 1 1 1 2 3 4 4 3 2 3 2 2 2 2 3 3 2 2 2 3 2
3 2 1 2 2 2 1 2 3 4 3 2 3 3 3 2 1 1 1 1 1 1 1 1 1 1 2 3 3 3 4 3 3 2 2 2 3 3 3 2 2 2 1
3 2 2 2 3 2 2 3 4 3 2 2 3 3 2 2 1 1 1 1 1 1 1 1 2 2 2 2 3 3 4 4 2 2 3 3 3 2 2 2 1 0 0
3 2 2 3 4 3 3 3 3 2 2 2 3 2 2 2 1 1 1 2 2 2 2 2 2 2 2 2 2 2 2 3 3 2 2 2 2 1 1 0 0 0 1
3 2 2 4 4 4 4 3 2 2 2 2 2 2 2 2 2 2 2 2 3 4 3 3 3 3 3 4 4 3 2 2 3 2 1 1 1 1 1 0 0 0 1
3 3 3 4 4 4 4 4 3 2 2 2 2 2 2 2 1 2 2 2 3 4 5 5 5 4 5 5 5 4 4 4 4 2 2 2 2 2 2 2 1 1 1
Wind_Direction
278 277 270 273 269 277 285 265 258 241 203 222 209 201 220 215 195 191 172 153 151 142 138 136 147 148 154 154 144 125 111 96 92 76 52 22 22 54 54 52 64 66 61
302 305 295 281 270 274 278 270 255 237 215 221 220 212 203 205 203 193 165 146 143 149 156 155 163 163 154 147 147 130 128 110 109 109 102 26 343 351 347 17 81 53 60
277 282 286 284 276 269 270 267 259 246 228 216 208 152 121 125 188 195 195 187 163 162 159 167 162 160 161 164 167 162 149 161 176 122 135 154 220 313 314 286 290 316 44
293 294 289 290 279 264 263 264 259 250 236 203 188 180 196 209 217 205 201 201 185 172 168 170 165 160 163 172 180 178 171 163 177 168 95 151 159 183 294 311 284 304 295
290 291 285 275 280 277 266 261 263 257 247 220 202 197 209 213 207 189 191 188 201 190 174 170 173 168 170 177 179 178 175 177 180 177 169 114 84 150 205 267 272 284 257
304 304 305 308 310 318 305 282 274 269 253 236 227 206 206 200 190 200 196 192 198 206 190 168 172 171 170 177 178 180 183 187 175 173 173 172 177 184 200 244 263 267 267
319 319 321 316 316 310 307 301 278 272 256 235 232 222 213 202 201 205 200 192 195 217 199 176 175 173 164 163 158 166 183 185 181 189 198 194 201 191 205 211 249 277 280
329 323 316 310 311 303 295 300 285 270 258 242 236 226 215 205 208 206 198 197 202 207 194 177 175 167 160 161 156 163 183 184 189 196 196 203 215 199 200 197 204 267 280
329 325 325 323 319 314 305 293 284 285 266 255 251 233 218 205 200 197 195 196 191 194 183 171 165 162 158 162 160 164 177 181 197 197 193 206 227 210 215 203 193 197 249
330 330 331 329 325 321 315 313 295 281 281 261 249 249 234 214 192 177 185 199 190 183 179 174 169 163 159 163 162 163 172 172 198 193 185 212 222 215 210 209 218 207 215
318 323 327 329 331 334 331 322 317 309 308 284 261 251 248 225 184 177 182 187 169 169 173 173 170 164 168 169 168 175 174 178 188 197 191 218 221 222 221 210 217 216 208
314 318 323 332 341 338 334 328 318 306 298 294 274 252 244 203 168 173 179 170 162 166 164 155 158 161 162 167 173 183 183 183 193 204 198 212 220 226 230 218 225 228 223
314 321 327 331 333 332 331 329 324 309 305 305 284 256 233 192 179 181 173 161 154 158 156 148 154 162 166 169 175 183 183 185 196 202 209 212 207 226 238 239 245 245 247
297 310 317 319 322 325 328 328 327 319 307 304 279 233 219 196 183 169 154 150 149 152 156 159 160 164 171 172 171 177 179 178 198 209 218 223 212 215 219 235 245 245 238
299 301 302 308 316 324 327 328 325 325 316 303 294 259 211 163 147 138 137 140 142 146 153 155 149 159 180 189 177 175 178 175 194 224 233 243 229 227 228 233 235 234 236
292 294 297 302 307 312 316 322 325 321 324 317 288 262 136 129 135 139 132 135 139 138 143 148 157 184 223 213 202 192 185 179 194 225 240 251 240 235 251 252 249 243 233
284 283 282 280 286 293 302 308 310 318 330 329 328 338 146 150 160 157 140 152 160 152 159 155 168 212 230 215 208 201 192 196 210 223 237 265 264 249 227 248 272 276 275
280 279 278 280 284 288 301 306 318 328 330 328 325 327 338 197 179 155 174 183 167 177 186 183 194 221 238 216 213 199 190 199 219 226 225 237 260 249 215 220 244 260 270
271 271 269 272 281 291 300 316 329 335 333 323 316 312 288 241 212 194 225 216 185 209 213 201 201 216 239 229 219 197 180 209 239 243 236 238 244 250 226 198 220 264 291
283 280 280 282 283 292 300 310 308 310 303 302 306 312 307 268 243 237 243 253 202 221 230 230 230 227 238 233 221 196 188 218 238 254 256 246 241 254 245 199 211 242 269
290 284 278 279 275 281 279 280 295 290 293 301 311 316 312 282 245 237 244 217 201 201 228 238 255 247 243 235 224 215 202 209 222 237 249 249 251 257 257 241 229 242 258
306 298 291 291 292 284 266 274 281 290 303 306 309 309 310 301 275 199 238 227 183 195 237 237 265 267 251 244 233 236 238 227 216 229 237 239 245 255 259 260 266 264 283
290 287 274 291 297 286 263 266 284 298 304 304 303 305 309 307 274 222 215 222 212 214 237 237 248 269 263 244 243 245 242 232 230 235 235 239 245 244 246 270 276 252 226
280 275 275 283 291 294 288 274 288 296 289 291 296 301 307 313 313 286 236 222 219 225 235 245 256 265 268 252 238 236 241 226 227 230 226 221 206 218 250 332 317 309 240
275 262 256 266 279 291 294 294 291 282 278 279 284 294 299 298 304 296 267 250 241 230 232 240 242 251 263 256 246 241 234 218 213 198 201 193 193 215 225 221 266 285 290
271 267 262 265 276 284 289 294 288 266 258 276 277 274 277 284 286 295 314 294 264 265 261 256 259 267 268 271 258 255 248 231 216 204 205 214 222 225 224 226 241 250 260
Height
1488 1488 1489 1489 1489 1488 1488 1489 1490 1491 1492 1492 1492 1493 1495 1496 1497 1499 1500 1501 1502 1503 1505 1506 1507 1508 1510 1512 1513 1515 1516 1517 1518 1519 1520 1521 1522 1523 1523 1524 1525 1525 1526
1484 1484 1485 1484 1484 1484 1485 1486 1487 1487 1488 1489 1490 1491 1492 1493 1494 1496 1497 1498 1499 1500 1502 1503 1504 1505 1507 1509 1510 1511 1513 1514 1516 1517 1517 1518 1520 1520 1520 1521 1521 1522 1523
1481 1481 1480 1480 1480 1480 1481 1482 1483 1484 1485 1486 1486 1488 1489 1490 1491 1492 1493 1494 1496 1497 1499 1500 1501 1502 1504 1505 1507 1509 1510 1511 1513 1515 1516 1517 1515 1516 1517 1517 1518 1519 1519
1479 1478 1477 1477 1477 1478 1479 1479 1480 1481 1481 1482 1483 1483 1485 1486 1487 1488 1490 1491 1493 1494 1495 1497 1498 1499 1501 1503 1504 1506 1508 1509 1510 1512 1514 1515 1514 1514 1513 1514 1515 1515 1516
1476 1475 1475 1475 1475 1475 1476 1476 1477 1477 1478 1479 1479 1480 1482 1483 1484 1486 1487 1488 1489 1491 1492 1494 1495 1496 1498 1500 1501 1503 1505 1506 1508 1509 1510 1511 1512 1512 1511 1510 1510 1511 1512
1474 1473 1473 1472 1472 1472 1472 1473 1473 1473 1474 1475 1476 1477 1478 1480 1481 1482 1483 1485 1486 1487 1489 1490 1492 1493 1495 1497 1498 1500 1502 1503 1504 1506 1507 1507 1508 1508 1509 1508 1507 1507 1508
1472 1471 1470 1469 1469 1469 1469 1469 1469 1470 1471 1472 1473 1474 1475 1476 1477 1479 1480 1481 1483 1483 1485 1486 1489 1490 1492 1494 1495 1497 1498 1499 1501 1502 1503 1504 1505 1505 1506 1506 1504 1504 1504
1471 1470 1468 1467 1467 1466 1466 1466 1466 1466 1467 1468 1469 1470 1471 1473 1474 1475 1477 1478 1480 1481 1481 1483 1485 1487 1488 1490 1492 1493 1495 1496 1497 1498 1499 1500 1501 1502 1503 1503 1502 1501 1500
1471 1469 1468 1466 1465 1464 1464 1464 1464 1464 1464 1465 1465 1466 1468 1469 1470 1472 1474 1475 1476 1478 1479 1480 1482 1483 1485 1487 1488 1489 1491 1492 1493 1494 1495 1496 1497 1498 1499 1499 1499 1500 1497
1470 1469 1467 1465 1464 1463 1462 1462 1462 1461 1461 1462 1462 1463 1464 1466 1467 1469 1470 1472 1473 1474 1475 1476 1478 1480 1481 1483 1484 1485 1487 1488 1489 1490 1491 1492 1493 1494 1494 1495 1495 1495 1495
1470 1468 1467 1465 1463 1462 1460 1459 1459 1458 1458 1458 1459 1460 1461 1462 1464 1465 1467 1469 1470 1471 1472 1473 1475 1476 1478 1479 1481 1482 1483 1484 1485 1486 1487 1488 1489 1490 1490 1491 1491 1491 1491
1469 1468 1466 1464 1462 1460 1458 1457 1456 1456 1456 1456 1456 1456 1458 1459 1461 1462 1464 1466 1467 1468 1469 1470 1471 1472 1474 1476 1477 1478 1479 1480 1481 1482 1483 1484 1485 1485 1486 1486 1486 1486 1487
1468 1467 1465 1463 1461 1459 1457 1455 1454 1453 1453 1453 1453 1454 1455 1456 1457 1459 1460 1462 1463 1465 1466 1467 1468 1469 1470 1472 1473 1474 1475 1476 1477 1478 1479 1480 1480 1480 1481 1481 1482 1482 1482
1467 1465 1463 1461 1459 1457 1456 1454 1452 1452 1451 1451 1451 1451 1452 1453 1454 1455 1457 1458 1460 1461 1462 1463 1465 1466 1467 1468 1469 1471 1471 1472 1473 1474 1475 1476 1476 1476 1477 1477 1478 1478 1478
1465 1463 1461 1460 1457 1455 1454 1452 1451 1450 1449 1449 1448 1448 1449 1450 1451 1453 1454 1455 1457 1458 1459 1460 1461 1462 1463 1464 1466 1467 1468 1468 1469 1470 1471 1472 1472 1473 1473 1473 1474 1474 1474
1463 1461 1459 1457 1455 1454 1452 1451 1449 1448 1447 1446 1446 1446 1447 1448 1449 1450 1451 1452 1453 1454 1455 1456 1457 1458 1459 1461 1462 1463 1464 1464 1466 1467 1467 1468 1468 1469 1470 1470 1471 1471 1470
1460 1459 1457 1455 1454 1452 1451 1449 1447 1446 1445 1444 1444 1444 1444 1445 1446 1447 1448 1448 1450 1451 1452 1453 1454 1454 1456 1457 1458 1459 1460 1461 1462 1463 1463 1463 1464 1465 1465 1466 1467 1467 1467
1457 1456 1454 1453 1451 1450 1449 1447 1446 1445 1443 1443 1442 1442 1442 1443 1443 1444 1445 1446 1447 1448 1448 1449 1450 1451 1452 1454 1455 1456 1457 1457 1458 1459 1459 1459 1460 1461 1461 1461 1462 1462 1463
1455 1453 1452 1451 1449 1448 1446 1445 1444 1443 1442 1441 1441 1440 1441 1441 1441 1441 1442 1443 1444 1445 1445 1446 1447 1448 1449 1450 1451 1452 1453 1454 1454 1455 1456 1456 1456 1457 1457 1458 1458 1458 1459
1452 1450 1449 1448 1446 1446 1445 1443 1442 1441 1440 1439 1439 1439 1439 1439 1439 1439 1440 1440 1441 1441 1442 1443 1444 1445 1445 1447 1448 1449 1449 1450 1450 1451 1452 1453 1453 1454 1454 1454 1454 1454 1455
1449 1447 1446 1445 1444 1443 1443 1442 1441 1440 1439 1438 1437 1437 1437 1437 1437 1437 1437 1438 1438 1439 1439 1440 1441 1442 1442 1443 1444 1445 1446 1446 1447 1447 1448 1449 1450 1450 1451 1451 1451 1451 1452
1445 1444 1443 1442 1442 1441 1440 1439 1439 1438 1437 1436 1435 1435 1434 1434 1434 1434 1435 1435 1436 1436 1436 1437 1437 1438 1439 1440 1440 1442 1443 1443 1443 1444 1444 1445 1446 1447 1447 1448 1448 1448 1449
1443 1442 1441 1440 1439 1439 1438 1437 1436 1435 1435 1434 1433 1432 1432 1432 1432 1432 1432 1432 1433 1433 1433 1433 1434 1434 1435 1436 1437 1438 1439 1440 1440 1440 1441 1442 1442 1443 1443 1444 1444 1445 1445
1440 1439 1438 1437 1436 1436 1435 1434 1434 1433 1432 1431 1431 1430 1429 1429 1429 1429 1430 1430 1430 1430 1430 1430 1431 1431 1432 1432 1433 1434 1435 1436 1436 1437 1438 1438 1439 1440 1440 1440 1441 1441 1441
1438 1437 1436 1435 1434 1433 1432 1432 1431 1430 1429 1429 1428 1427 1427 1426 1426 1427 1427 1427 1427 1428 1428 1428 1428 1428 1428 1429 1430 1430 1431 1431 1432 1433 1434 1435 1435 1436 1436 1436 1437 1438 1438
1434 1434 1433 1432 1431 1430 1429 1429 1428 1428 1427 1426 1425 1425 1424 1424 1424 1424 1424 1424 1425 1425 1425 1426 1426 1426 1426 1426 1426 1427 1427 1428 1429 1430 1430 1430 1431 1432 1432 1433 1433 1434 1434